Fort Eustis, VA

3:34 AM EST on November 21, 2019 (GMT -0500)
Felker Army Air Field

Weather History for KFAF - September, 2019

Change the Weather History Date:

Saturday, September 14, 2019

  Actual Average Record
Temperature  
Mean Temperature 78 °F -  
Max Temperature 84 °F 78 °F 93 °F (1998)
Min Temperature 71 °F 64 °F 55 °F (2015)
Cooling Degree Days 12    
Growing Degree Days 28 (Base 50)    
Moisture  
Dew Point 64 °F    
Average Humidity 65    
Maximum Humidity 76    
Minimum Humidity 51    
Precipitation  
Precipitation 0.00 in - - ()
Sea Level Pressure  
Sea Level Pressure 30.23 in    
Wind  
Wind Speed 4 mph ()    
Max Wind Speed 9 mph    
Max Gust Speed -    
Visibility 10.0 miles    
Events      
Averages and records for this station are not official NWS values.
T = Trace of Precipitation, MM = Missing Value Source: Averaged Metar Reports

Daily Weather History Graph

Daily Weather History Graph

Search for Another Location

Airport or City:

Astronomy

Sep. 14, 2019 Rise Set
Actual Time 6:47 AM EDT 7:15 PM EDT
Civil Twilight 6:21 AM EDT 7:42 PM EDT
Nautical Twilight 5:50 AM EDT 8:12 PM EDT
Astronomical Twilight 5:19 AM EDT 8:43 PM EDT
Moon 7:55 PM EDT (9/14) 7:00 AM EDT (9/14)
Length of Visible Light 13h 20m
Length of Day
12h 28m
Full, 100% of the Moon is Illuminated
Sep 14
Full
Sep 21
Last Quarter
Sep 28
New
Oct 5
First Quarter
Oct 13
Full

Hourly Weather History & Observations

Time (EDT) Temp. Heat Index Dew Point Humidity Pressure Visibility Wind Dir Wind Speed Gust Speed Precip Events Conditions
12:56 AM 72.5 °F - 59.5 °F 64% 30.29 in 10.0 mi East 3.5 mph - N/A   Overcast
1:56 AM 72.0 °F - 60.4 °F 67% 30.28 in 10.0 mi Calm Calm - N/A   Overcast
2:56 AM 72.0 °F - 61.2 °F 69% 30.27 in 10.0 mi NE 3.5 mph - N/A   Overcast
3:56 AM 71.6 °F - 62.1 °F 72% 30.26 in 10.0 mi North 3.5 mph - N/A   Overcast
4:56 AM 71.2 °F - 62.1 °F 73% 30.26 in 10.0 mi NE 3.5 mph - N/A   Overcast
5:56 AM 71.8 °F - 62.2 °F 72% 30.26 in 10.0 mi ENE 3.5 mph - N/A   Overcast
6:56 AM 71.8 °F - 62.6 °F 73% 30.27 in 10.0 mi Calm Calm - N/A   Overcast
7:56 AM 72.9 °F - 63.7 °F 73% 30.28 in 10.0 mi East 3.5 mph - N/A   Overcast
8:56 AM 75.0 °F - 64.6 °F 70% 30.28 in 10.0 mi ENE 6.9 mph - N/A   Overcast
9:56 AM 78.4 °F - 64.2 °F 62% 30.29 in 10.0 mi ENE 3.5 mph - N/A   Mostly Cloudy
10:56 AM 79.3 °F - 62.2 °F 56% 30.28 in 10.0 mi East 4.6 mph - N/A   Mostly Cloudy
11:56 AM 80.1 °F 81.7 °F 63.9 °F 58% 30.27 in 10.0 mi Calm Calm - N/A   Overcast
12:56 PM 81.9 °F 83.2 °F 63.5 °F 54% 30.26 in 10.0 mi SE 5.8 mph - N/A   Partly Cloudy
1:56 PM 81.9 °F 83.5 °F 64.6 °F 56% 30.23 in 10.0 mi East 5.8 mph - N/A   Scattered Clouds
2:56 PM 83.5 °F 85.3 °F 65.5 °F 54% 30.21 in 10.0 mi SE 6.9 mph - N/A   Mostly Cloudy
3:56 PM 84.2 °F 85.6 °F 64.0 °F 51% 30.19 in 10.0 mi SE 4.6 mph - N/A   Scattered Clouds
4:56 PM 83.7 °F 85.1 °F 64.6 °F 52% 30.19 in 10.0 mi SE 8.1 mph - N/A   Clear
5:56 PM 82.2 °F 84.2 °F 65.8 °F 57% 30.17 in 10.0 mi SE 5.8 mph - N/A   Clear
6:56 PM 80.4 °F 82.7 °F 66.6 °F 63% 30.17 in 10.0 mi SE 5.8 mph - N/A   Clear
7:56 PM 77.4 °F - 66.7 °F 70% 30.17 in 10.0 mi SE 5.8 mph - N/A   Clear
8:56 PM 76.6 °F - 66.0 °F 70% 30.17 in 10.0 mi SE 4.6 mph - N/A   Clear
9:56 PM 76.3 °F - 66.9 °F 73% 30.18 in 10.0 mi SSE 6.9 mph - N/A   Clear
10:56 PM 75.9 °F - 66.6 °F 73% 30.17 in 10.0 mi SSE 9.2 mph - N/A   Clear
11:56 PM 75.6 °F - 67.5 °F 76% 30.16 in 10.0 mi South 6.9 mph - N/A   Clear